Bismarck, ND

7:32 AM CDT on September 24, 2017 (GMT -0500)
Bismarck Municipal

Weather History for KBIS - September, 2013

Change the Weather History Date:

Tuesday, September 10, 2013

  Actual Average Record
Temperature  
Mean Temperature 71 °F 61 °F  
Max Temperature 84 °F 75 °F 100 °F (1952)
Min Temperature 57 °F 48 °F 27 °F (1943)
Degree Days  
Heating Degree Days 0 6  
Month to date heating degree days 1 43  
Since 1 July heating degree days 29 98  
Cooling Degree Days 6 2  
Month to date cooling degree days 63 24  
Year to date cooling degree days 543 505  
Growing Degree Days 20 (Base 50)    
Moisture  
Dew Point 55 °F    
Average Humidity 63    
Maximum Humidity 93    
Minimum Humidity 32    
Precipitation  
Precipitation 0.00 in 0.06 in 1.26 in (2003)
Month to date precipitation 2.39 0.60  
Year to date precipitation 18.70 14.41  
Snow  
Snow 0.00 in - - ()
Month to date snowfall 0.0  
Snow Depth 0.00 in    
Sea Level Pressure  
Sea Level Pressure 29.94 in    
Wind  
Wind Speed 7 mph (WNW)    
Max Wind Speed 20 mph    
Max Gust Speed 24 mph    
Visibility 10 miles    
Events      
T = Trace of Precipitation, MM = Missing Value Source: NWS Daily Summary

Daily Weather History Graph

Daily Weather History Graph

Search for Another Location

Airport or City:

Trip Planner

Search our weather history database for the weather conditions in past years. The results will help you decide how hot, cold, wet, or windy it might be!

Date:

Astronomy

Sep. 10, 2013 Rise Set
Actual Time 7:14 AM CDT 8:04 PM CDT
Civil Twilight 6:43 AM CDT 8:34 PM CDT
Nautical Twilight 6:07 AM CDT 9:11 PM CDT
Astronomical Twilight 5:28 AM CDT 9:49 PM CDT
Moon 1:04 PM CDT (9/10) 10:45 PM CDT (9/10)
Length of Visible Light 13h 50m
Length of Day
12h 49m
Waxing Crescent, 28% of the Moon is Illuminated
Sep 10
Waxing Crescent
Sep 12
First Quarter
Sep 19
Full
Sep 26
Last Quarter
Oct 4
New

Hourly Weather History & Observations

Time (CDT) Temp. Heat Index Dew Point Humidity Pressure Visibility Wind Dir Wind Speed Gust Speed Precip Events Conditions
12:52 AM 62.1 °F - 55.9 °F 80% 29.84 in 10.0 mi WSW 3.5 mph - N/A   Clear
1:52 AM 60.1 °F - 55.9 °F 86% 29.86 in 10.0 mi West 5.8 mph - N/A   Clear
2:52 AM 59.0 °F - 55.0 °F 87% 29.87 in 10.0 mi West 4.6 mph - N/A   Clear
3:52 AM 57.9 °F - 55.0 °F 90% 29.89 in 10.0 mi WSW 6.9 mph - N/A   Clear
4:52 AM 57.0 °F - 55.0 °F 93% 29.90 in 10.0 mi West 6.9 mph - N/A   Clear
5:52 AM 57.0 °F - 55.0 °F 93% 29.92 in 10.0 mi WNW 6.9 mph - N/A   Clear
6:14 AM 57.9 °F - 55.0 °F 90% 29.94 in 10.0 mi West 5.8 mph - N/A   Mostly Cloudy
6:52 AM 57.0 °F - 54.0 °F 89% 29.93 in 10.0 mi WNW 6.9 mph - N/A   Scattered Clouds
7:26 AM 57.0 °F - 55.0 °F 93% 29.95 in 10.0 mi WNW 5.8 mph - N/A   Mostly Cloudy
7:49 AM 57.2 °F - 55.4 °F 94% 29.96 in 10.0 mi WNW 6.9 mph - N/A   Mostly Cloudy
7:52 AM 57.9 °F - 55.0 °F 90% 29.95 in 10.0 mi WNW 6.9 mph - N/A   Mostly Cloudy
8:15 AM 57.9 °F - 55.0 °F 90% 29.96 in 10.0 mi WNW 5.8 mph - N/A   Scattered Clouds
8:52 AM 61.0 °F - 55.9 °F 83% 29.96 in 10.0 mi West 6.9 mph - N/A   Clear
9:52 AM 64.0 °F - 55.9 °F 75% 29.97 in 10.0 mi West 6.9 mph - N/A   Clear
10:52 AM 66.9 °F - 57.0 °F 70% 29.97 in 10.0 mi West 6.9 mph - N/A   Clear
11:52 AM 72.0 °F - 57.9 °F 61% 29.97 in 10.0 mi West 3.5 mph - N/A   Clear
12:52 PM 77.0 °F - 55.9 °F 48% 29.96 in 10.0 mi West 10.4 mph 18.4 mph N/A   Clear
1:52 PM 80.1 °F 80.2 °F 55.9 °F 43% 29.96 in 10.0 mi West 10.4 mph - N/A   Clear
2:52 PM 82.0 °F 81.3 °F 54.0 °F 38% 29.95 in 10.0 mi WNW 15.0 mph - N/A   Clear
3:52 PM 82.9 °F - 52.0 °F 34% 29.94 in 10.0 mi WNW 11.5 mph - N/A   Partly Cloudy
4:52 PM 84.0 °F - 51.1 °F 32% 29.94 in 10.0 mi NW 15.0 mph 20.7 mph N/A   Scattered Clouds
5:52 PM 82.9 °F - 51.1 °F 33% 29.94 in 10.0 mi NW 11.5 mph - N/A   Clear
6:52 PM 80.1 °F 79.9 °F 53.1 °F 39% 29.95 in 10.0 mi WNW 9.2 mph - N/A   Partly Cloudy
7:52 PM 77.0 °F - 55.9 °F 48% 29.96 in 10.0 mi NW 5.8 mph - N/A   Clear
8:52 PM 71.1 °F - 57.0 °F 61% 29.99 in 10.0 mi West 3.5 mph - N/A   Clear
9:52 PM 66.9 °F - 57.0 °F 70% 30.01 in 10.0 mi West 4.6 mph - N/A   Clear
10:52 PM 64.0 °F - 55.9 °F 75% 30.01 in 10.0 mi West 4.6 mph - N/A   Clear
11:52 PM 63.0 °F - 55.0 °F 75% 30.02 in 10.0 mi Calm Calm - N/A   Clear